Location: Newark
(48.6461°N, 4.3644°W)
Time: 13:40:05
(UTC+00:00)

S-56A Canister/Altair - Pass Details

Date: 20 January 2020
Orbit: 633 x 2500 km, 38.9° (Epoch: 24 February)

Event Time Altitude Azimuth Distance (km) Brightness Sun altitude
Rises 23:22:51 0° 241° (WSW) 3,134 - -58.5°
Reaches altitude 10° 23:25:43 10° 227° (SW) 2,088 - -58.8°
Maximum altitude 23:29:23 23° 174° (S) 1,329 - -59.1°
Drops below altitude 10° 23:32:57 10° 120° (ESE) 2,032 - -59.3°
Sets 23:35:42 0° 106° (ESE) 3,029 - -59.5°
